Tracking 25703 objects as of 3-Jul-2022
HD Live streaming from Space Station
objects crossing your sky now

NATO 3D

Track NATO 3D now!
NATO 3D is classified as:


NORAD ID: 15391
Int'l Code: 1984-115A
Perigee: 36,883.7 km
Apogee: 37,823.4 km
Inclination: 14.4 °
Period: 1,516.5 minutes
Semi major axis: 43724 km
RCS: 5.3188 m2 (large)
Launch date: November 14, 1984
Source: North Atlantic Treaty Organization (NATO)
Launch site: AIR FORCE EASTERN TEST RANGE (AFETR)
aabbcc
Your satellite tracking list
Your tracking list is empty




NASA's NSSDC Master Catalog

Two Line Element Set (TLE):
1 15391U 84115A   22183.01448973 -.00000125  00000-0  00000-0 0  9999
2 15391  14.4358   3.5869 0107448  97.5123 262.5872  0.94954337134147
Source of the keplerian elements: AFSPC